Tracking 35275 objects as of 8-Sep-2026
HD Live streaming from Space Station
objects crossing your sky now

H-2A R/B(2)

Track H-2A R/B(2) now!


NORAD ID: 27518
Int'l Code: 2002-042D
Launch date: September 10, 2002
Source: Japan (JPN)
Launch site: TANEGASHIMA SPACE CENTER (TNSTA)

Note: This is a ROCKET BODY
Your satellite tracking list
Your tracking list is empty




NASA's NSSDC Master Catalog

Two Line Element Set (TLE):
1 27518U 02042D   26250.31565173 -.00000110  00000-0  58861-3 0  9991
2 27518  28.3377 175.8630 7106489 343.1026   1.9808  2.37876525207335
Source of the keplerian elements: AFSPC